This is the latest recevied weather packets stored in our database for station/object FW9167. If no packets are shown the sender has not sent any weather packets the latest 10 day(s).
| Time | Temp. | Humidity | Pressure | Rain* | Wind** | Luminosity | Snow |
|---|---|---|---|---|---|---|---|
| 1777786262 | 12.22° C | 55% | 1015.4 hPa | 0 mm | - | - | - |
| 1777785362 | 13.89° C | 51% | 1015.3 hPa | 0 mm | - | - | - |
| 1777779962 | 17.22° C | 40% | 1014.7 hPa | 0 mm | - | - | - |
| 1777768267 | 25.56° C | 35% | 1014.2 hPa | 0 mm | - | - | - |
| 1777751163 | 23.89° C | 29% | 1016.9 hPa | 0 mm | - | - | - |
| 1777748467 | 22.22° C | 34% | 1017.3 hPa | 0 mm | - | - | - |
| 1777747562 | 22.22° C | 39% | 1017.5 hPa | 0 mm | - | - | - |
| 1777742163 | 18.33° C | 51% | 1018 hPa | 0 mm | - | - | - |
| 1777741263 | 17.78° C | 52% | 1018.1 hPa | 0 mm | - | - | - |
| 1777739462 | 16.67° C | 56% | 1018.1 hPa | 0 mm | - | - | - |
| 1777718762 | 5.56° C | 81% | 1018.3 hPa | 0 mm | - | - | - |
| 1777715163 | 6.67° C | 74% | 1018 hPa | 0 mm | - | - | - |
| 1777707062 | 10° C | 62% | 1018.4 hPa | 0 mm | - | - | - |
| 1777702562 | 10° C | 63% | 1018.4 hPa | 0 mm | - | - | - |
| 1777700762 | 10.56° C | 60% | 1018.4 hPa | 0 mm | - | - | - |
| 1777696263 | 12.78° C | 56% | 1018.3 hPa | 0 mm | - | - | - |
| 1777688164 | 16.67° C | 55% | 1017.6 hPa | 0 mm | - | - | - |
| 1777687262 | 17.22° C | 61% | 1017.6 hPa | 0 mm | - | - | - |
| 1777686364 | 20.56° C | 46% | 1017.6 hPa | 0 mm | - | - | - |
| 1777683664 | 21.67° C | 44% | 1018 hPa | 0 mm | - | - | - |
| 1777677363 | 22.78° C | 30% | 1018.5 hPa | 0 mm | - | - | - |
| 1777671062 | 22.78° C | 34% | 1019.8 hPa | 0 mm | - | - | - |
| 1777669262 | 22.22° C | 31% | 1019.8 hPa | 0 mm | - | - | - |
| 1777668364 | 22.22° C | 39% | 1020 hPa | 0 mm | - | - | - |
| 1777664762 | 21.11° C | 42% | 1020.6 hPa | 0 mm | - | - | - |
* Rain since midnight (hover to see other rain measurements)
** Current wind speed in m/s (hover to see current wind gust speed)